K5KVN-2 Weather Reports


time (UTC)temp
F
wind
direction
speed
knots
gust
knots
rain 1hr
in
rain 24hr
in
rain mn
in
humidity
%
barometer
mb
20260504081439 63 211 6.1 11.3 0.00 0.00 0.00 59 1011.6
20260504080439 64 178 6.1 11.3 0.00 0.00 0.00 59 1011.7
20260504050438 67 198 5.2 10.4 0.00 0.00 0.00 56 1013.1
20260504045436 67 175 5.2 8.7 0.00 0.00 0.00 56 1012.9
20260504044436 67 225 5.2 8.7 0.00 0.00 0.00 56 1013.1
20260504043437 68 175 5.2 10.4 0.00 0.00 0.00 54 1013.2
20260504042436 68 207 5.2 10.4 0.00 0.00 0.00 54 1013.4
20260504041435 68 197 5.2 11.3 0.00 0.00 0.00 54 1013.3
20260504035918 68 188 6.1 10.4 0.00 0.00 0.00 54 1013.3
20260504034436 67 229 5.2 7.8 0.00 0.00 0.00 55 1013.3
20260504033438 68 178 5.2 8.7 0.00 0.00 0.00 54 1013.3
20260504032435 68 184 5.2 10.4 0.00 0.00 0.00 53 1013.4
20260504031920 68 162 5.2 8.7 0.00 0.00 0.00 53 1013.4
20260504030432 68 194 5.2 8.7 0.00 0.00 0.00 53 1013.4
20260504023916 68 209 6.1 8.7 0.00 0.00 0.00 54 1013.2
20260504022432 68 181 5.2 8.7 0.00 0.00 0.00 53 1013.2
20260504021431 68 182 5.2 8.7 0.00 0.00 0.00 54 1012.9
20260504020432 68 180 5.2 9.6 0.00 0.00 0.00 53 1012.9
20260504015433 68 176 4.3 8.7 0.00 0.00 0.00 54 1012.8
20260504014431 69 188 4.3 6.1 0.00 0.00 0.00 54 1012.8
20260504013436 69 174 3.5 6.1 0.00 0.00 0.00 53 1012.8
20260504012430 70 186 3.5 6.1 0.00 0.00 0.00 52 1012.8
20260504011430 71 192 3.5 6.1 0.00 0.00 0.00 50 1012.7
20260504005431 72 195 4.3 6.1 0.00 0.00 0.00 48 1012.6
20260504004428 73 192 3.5 5.2 0.00 0.00 0.00 47 1012.6
20260504003427 74 186 2.6 4.3 0.00 0.00 0.00 45 1012.6
20260504002427 75 227 2.6 7.0 0.00 0.00 0.00 42 1012.7
20260504001906 76 209 2.6 5.2 0.00 0.00 0.00 40 1012.8
20260504000424 76 215 2.6 6.1 0.00 0.00 0.00 39 1012.8
20260503235424 76 204 3.5 6.1 0.00 0.00 0.00 36 1013.1
20260503234424 77 199 3.5 9.6 0.00 0.00 0.00 35 1013.1
20260503233430 77 199 3.5 9.6 0.00 0.00 0.00 34 1013.2
20260503232420 77 196 4.3 10.4 0.00 0.00 0.00 31 1013.2
20260503231421 78 198 4.3 8.7 0.00 0.00 0.00 31 1013.3
20260503230907 78 250 5.2 8.7 0.00 0.00 0.00 31 1013.3
20260503225414 78 223 4.3 10.4 0.00 0.00 0.00 32 1013.4
20260503224413 78 194 6.1 13.9 0.00 0.00 0.00 40 1013.4
20260503223413 78 168 8.7 13.9 0.00 0.00 0.00 44 1013.3
20260503222413 78 188 9.6 16.5 0.00 0.00 0.00 42 1013.5
20260503221412 78 187 6.1 13.0 0.00 0.00 0.00 41 1013.6
20260503220852 78 227 4.3 9.6 0.00 0.00 0.00 40 1013.7
20260503215407 78 221 7.8 14.8 0.00 0.00 0.00 38 1013.8
20260503214407 78 191 8.7 19.1 0.00 0.00 0.00 41 1013.9
20260503213403 78 177 6.1 15.6 0.00 0.00 0.00 41 1014.0
20260503212406 78 200 7.8 15.6 0.00 0.00 0.00 44 1014.2
20260503211403 78 188 8.7 15.6 0.00 0.00 0.00 42 1014.3
20260503210404 78 221 7.0 13.9 0.00 0.00 0.00 43 1014.5
20260503205403 78 165 7.8 15.6 0.00 0.00 0.00 44 1014.8
20260503204401 78 180 5.2 9.6 0.00 0.00 0.00 44 1015.1
20260503203402 78 217 7.0 13.9 0.00 0.00 0.00 46 1015.1
20260503202401 77 184 7.8 14.8 0.00 0.00 0.00 47 1015.3
20260503201845 77 178 6.1 13.9 0.00 0.00 0.00 44 1015.4
20260503200358 77 205 7.0 13.9 0.00 0.00 0.00 44 1015.7
20260503195358 77 177 7.0 14.8 0.00 0.00 0.00 43 1015.7
20260503194837 77 174 7.8 13.9 0.00 0.00 0.00 49 1016.1
20260503193400 77 195 6.1 13.0 0.00 0.00 0.00 46 1016.3
20260503192359 76 188 5.2 11.3 0.00 0.00 0.00 46 1016.4
20260503191358 76 205 7.8 15.6 0.00 0.00 0.00 46 1016.5
20260503190358 75 192 7.8 14.8 0.00 0.00 0.00 47 1016.6
20260503185832 75 242 7.8 13.0 0.00 0.00 0.00 48 1016.7
20260503184357 75 184 5.2 11.3 0.00 0.00 0.00 46 1016.6
20260503183354 75 240 7.0 13.9 0.00 0.00 0.00 47 1016.7
20260503182353 74 210 7.0 14.8 0.00 0.00 0.00 48 1016.9
20260503181351 74 197 9.6 16.5 0.00 0.00 0.00 47 1017.0
20260503180352 74 204 8.7 14.8 0.00 0.00 0.00 44 1017.1
20260503175843 73 171 9.6 15.6 0.00 0.00 0.00 45 1017.3
20260503174353 73 182 7.8 13.9 0.00 0.00 0.00 46 1017.4
20260503173347 73 189 8.7 15.6 0.00 0.00 0.00 45 1017.5
20260503172345 71 184 11.3 19.1 0.00 0.00 0.00 46 1017.6
20260503171346 72 168 8.7 18.2 0.00 0.00 0.00 45 1017.8
20260503170345 71 187 9.6 16.5 0.00 0.00 0.00 47 1018.0
20260503150340 65 166 9.6 14.8 0.00 0.00 0.00 48 1019.3
20260503131336 53 128 0.9 2.6 0.00 0.00 0.00 66 1019.8
20260503130336 51 126 0.0 2.6 0.00 0.00 0.00 67 1019.8
20260503110321 41 134 0.0 0.0 0.00 0.00 0.00 88 1019.0